Location: Pasadena, ca
(34.1243°N, 118.1037°W)
Time: 00:39:30
(UTC-07:00)

Tiangong 2 - Pass Details

Date: 23 May 2018
Orbit: 291 x 297 km, 42.8° (Epoch: 19 June)

Event Time Altitude Azimuth Distance (km) Brightness Sun altitude
Rises 21:07:21 0° 255° (WSW) 1,975 5.2 -13.9°
Reaches altitude 10° 21:09:21 10° 263° (W) 1,152 4.1 -14.2°
Maximum altitude 21:11:49 40° 336° (NNW) 449 1.9 -14.6°
Drops below altitude 10° 21:14:16 10° 49° (NE) 1,147 3.4 -15.0°
Enters shadow 21:14:26 - 50° (NE) 1,214 3.5 -15.0°
